VE4JMP Weather Reports


time (UTC)temp
C
wind
direction
speed
KPH
gust
KPH
rain 1hr
cm
rain 24hr
cm
rain mn
cm
humidity
%
barometer
mb
20260906204515 28 121 1.6 4.8 0.00 0.00 0.00 65 1016.6
20260906203531 27 119 3.2 4.8 0.00 0.00 0.00 68 1016.4
20260906202518 27 153 4.8 8.0 0.00 0.00 0.00 68 1016.3
20260906201521 27 153 4.8 8.0 0.00 0.00 0.00 68 1016.1
20260906200525 27 135 4.8 8.0 0.00 0.00 0.00 69 1016.1
20260906195549 27 129 3.2 6.4 0.00 0.00 0.00 68 1016.1
20260906194515 27 126 3.2 4.8 0.00 0.00 0.00 70 1016.1
20260906193519 27 125 3.2 4.8 0.00 0.00 0.00 69 1016.1
20260906192523 27 148 4.8 6.4 0.00 0.00 0.00 69 1016.2
20260906191527 30 117 4.8 8.0 0.00 0.00 0.00 62 1016.3
20260906190531 30 126 4.8 8.0 0.00 0.00 0.00 61 1016.4
20260906185517 31 125 4.8 8.0 0.00 0.00 0.00 59 1016.6
20260906184521 31 116 4.8 6.4 0.00 0.00 0.00 60 1016.8
20260906183526 32 82 4.8 8.0 0.00 0.00 0.00 57 1017.1
20260906182529 31 122 3.2 4.8 0.00 0.00 0.00 59 1017.2
20260906181553 30 125 4.8 8.0 0.00 0.00 0.00 60 1017.4
20260906180519 30 136 4.8 6.4 0.00 0.00 0.00 60 1017.6
20260906175524 31 120 4.8 8.0 0.00 0.00 0.00 58 1017.5
20260906174527 30 127 3.2 6.4 0.00 0.00 0.00 60 1017.6
20260906173551 29 169 4.8 6.4 0.00 0.00 0.00 61 1017.9
20260906172516 30 120 4.8 8.0 0.00 0.00 0.00 60 1017.9
20260906171520 28 152 4.8 6.4 0.00 0.00 0.00 62 1018.0
20260906170524 30 46 3.2 4.8 0.00 0.00 0.00 61 1018.1
20260906165528 30 115 4.8 8.0 0.00 0.00 0.00 61 1018.2
20260906164527 30 98 3.2 8.0 0.00 0.00 0.00 61 1018.2
20260906163518 28 162 4.8 6.4 0.00 0.00 0.00 63 1018.4
20260906162522 28 118 3.2 6.4 0.00 0.00 0.00 63 1018.4
20260906161541 27 166 4.8 6.4 0.00 0.00 0.00 64 1018.4
20260906160558 28 130 3.2 6.4 0.00 0.00 0.00 64 1018.5
20260906155516 28 137 3.2 4.8 0.00 0.00 0.00 63 1018.3
20260906154541 27 127 3.2 4.8 0.00 0.00 0.00 65 1018.2
20260906153524 27 118 4.8 6.4 0.00 0.00 0.00 65 1018.3
20260906152528 27 111 3.2 6.4 0.00 0.00 0.00 66 1018.3
20260906151532 26 104 3.2 6.4 0.00 0.00 0.00 68 1018.3
20260906150517 26 103 3.2 4.8 0.00 0.00 0.00 69 1018.4
20260906145522 24 103 1.6 4.8 0.00 0.00 0.00 73 1018.4
20260906144526 24 82 1.6 4.8 0.00 0.00 0.00 74 1018.5
20260906143529 23 66 1.6 3.2 0.00 0.00 0.00 77 1018.3
20260906142516 22 45 0.0 3.2 0.00 0.00 0.00 82 1018.3
20260906141520 20 113 1.6 3.2 0.00 0.00 0.00 89 1018.4
20260906140524 18 0.0 0.0 0.00 0.00 0.00 93 1018.4
20260906135528 17 0.0 0.0 0.00 0.00 0.00 95 1018.7
20260906134531 17 0.0 0.0 0.00 0.00 0.00 95 1018.8
20260906133518 17 0.0 0.0 0.00 0.00 0.00 95 1018.8
20260906132521 17 0.0 0.0 0.00 0.00 0.00 95 1018.7
20260906131526 17 0.0 0.0 0.00 0.00 0.00 95 1018.7
20260906130529 16 0.0 0.0 0.00 0.00 0.00 95 1018.6
20260906125515 16 0.0 0.0 0.00 0.00 0.00 95 1018.7
20260906124540 15 0.0 0.0 0.00 0.00 0.00 95 1018.6
20260906123524 14 0.0 0.0 0.00 0.00 0.00 96 1018.6
20260906122527 14 0.0 0.0 0.00 0.00 0.00 96 1018.7
20260906121532 14 0.0 0.0 0.00 0.00 0.00 96 1018.7
20260906120517 14 0.0 0.0 0.00 0.00 0.00 96 1018.7
20260906115521 14 0.0 0.0 0.00 0.00 0.00 96 1018.5
20260906114525 15 0.0 0.0 0.00 0.00 0.00 96 1018.5
20260906113523 15 0.0 0.0 0.00 0.00 0.00 96 1018.5
20260906112515 15 0.0 0.0 0.00 0.00 0.00 96 1018.4
20260906111519 15 0.0 0.0 0.00 0.00 0.00 96 1018.3
20260906110517 15 0.0 0.0 0.00 0.00 0.00 96 1018.2
20260906105515 15 0.0 0.0 0.00 0.00 0.00 96 1018.0
20260906104531 15 0.0 0.0 0.00 0.00 0.00 96 1017.8
20260906103517 15 0.0 0.0 0.00 0.00 0.00 96 1017.9
20260906102521 15 0.0 0.0 0.00 0.00 0.00 96 1017.8
20260906101525 15 0.0 0.0 0.00 0.00 0.00 96 1017.8
20260906100529 15 0.0 0.0 0.00 0.00 0.00 96 1017.8
20260906095553 15 0.0 0.0 0.00 0.00 0.00 96 1017.7
20260906094519 15 0.0 0.0 0.00 0.00 0.00 96 1017.7
20260906093523 16 0.0 0.0 0.00 0.00 0.00 96 1017.6
20260906092527 16 0.0 0.0 0.00 0.00 0.00 96 1017.6
20260906091531 16 0.0 0.0 0.00 0.00 0.00 96 1017.7
20260906090516 16 0.0 0.0 0.00 0.00 0.00 96 1017.6
20260906085521 16 0.0 0.0 0.00 0.00 0.00 95 1017.7
20260906084525 16 0.0 0.0 0.00 0.00 0.00 95 1017.7
20260906083528 16 0.0 0.0 0.00 0.00 0.00 95 1017.5
20260906082532 16 0.0 0.0 0.00 0.00 0.00 95 1017.6
20260906081538 16 143 0.0 3.2 0.00 0.00 0.00 95 1017.7
20260906080522 16 145 1.6 3.2 0.00 0.00 0.00 95 1017.8
20260906075527 15 0.0 0.0 0.00 0.00 0.00 94 1017.8
20260906074530 16 0.0 0.0 0.00 0.00 0.00 94 1017.8
20260906073516 15 0.0 0.0 0.00 0.00 0.00 93 1017.7
20260906072520 15 0.0 0.0 0.00 0.00 0.00 93 1017.7
20260906071524 15 0.0 0.0 0.00 0.00 0.00 93 1017.8
20260906070528 15 0.0 0.0 0.00 0.00 0.00 93 1017.9
20260906065546 16 0.0 0.0 0.00 0.00 0.00 93 1017.9
20260906064518 16 0.0 0.0 0.00 0.00 0.00 93 1017.9
20260906063522 16 0.0 0.0 0.00 0.00 0.00 93 1018.0
20260906062520 16 0.0 0.0 0.00 0.00 0.00 92 1017.9
20260906061518 16 0.0 0.0 0.00 0.00 0.00 91 1017.8
20260906060556 16 0.0 0.0 0.00 0.00 0.00 91 1017.8
20260906055520 16 0.0 0.0 0.00 0.00 0.00 91 1017.9
20260906054524 17 0.0 0.0 0.00 0.00 0.00 91 1017.9
20260906053528 17 0.0 0.0 0.00 0.00 0.00 91 1017.8
20260906052532 17 0.0 0.0 0.00 0.00 0.00 90 1017.8
20260906051518 17 180 0.0 3.2 0.00 0.00 0.00 90 1017.8
20260906050602 18 179 1.6 4.8 0.00 0.00 0.00 90 1017.8
20260906045545 18 176 0.0 3.2 0.00 0.00 0.00 90 1017.8
20260906044529 18 158 0.0 3.2 0.00 0.00 0.00 89 1017.6
20260906043515 18 0.0 0.0 0.00 0.00 0.00 89 1017.6
20260906042519 18 167 3.2 4.8 0.00 0.00 0.00 89 1017.6
20260906041523 18 0.0 0.0 0.00 0.00 0.00 89 1017.6
20260906040527 18 0.0 0.0 0.00 0.00 0.00 89 1017.5
20260906035532 18 0.0 0.0 0.00 0.00 0.00 89 1017.6
20260906034517 18 0.0 0.0 0.00 0.00 0.00 88 1017.5
20260906033541 18 0.0 0.0 0.00 0.00 0.00 88 1017.5
20260906032525 18 0.0 0.0 0.00 0.00 0.00 87 1017.5
20260906031529 19 0.0 0.0 0.00 0.00 0.00 87 1017.6
20260906030515 19 0.0 0.0 0.00 0.00 0.00 88 1017.6
20260906025519 19 0.0 0.0 0.00 0.00 0.00 88 1017.8
20260906024523 18 0.0 0.0 0.00 0.00 0.00 88 1017.8
20260906023527 19 0.0 0.0 0.00 0.00 0.00 88 1017.8
20260906022531 19 0.0 0.0 0.00 0.00 0.00 87 1017.9
20260906021516 20 0.0 0.0 0.00 0.00 0.00 86 1017.9
20260906020520 20 0.0 0.0 0.00 0.00 0.00 86 1017.8
20260906015525 20 0.0 0.0 0.00 0.00 0.00 85 1017.6
20260906014524 20 0.0 0.0 0.00 0.00 0.00 84 1017.6
20260906013520 21 0.0 0.0 0.00 0.00 0.00 82 1017.3
20260906012519 21 0.0 0.0 0.00 0.00 0.00 81 1017.2
20260906011516 22 0.0 0.0 0.00 0.00 0.00 79 1017.0
20260906010528 22 0.0 0.0 0.00 0.00 0.00 76 1016.8
20260906005531 23 0.0 0.0 0.00 0.00 0.00 75 1016.6
20260906004536 24 0.0 0.0 0.00 0.00 0.00 72 1016.4
20260906003521 25 0.0 0.0 0.00 0.00 0.00 70 1016.3
20260906002525 25 0.0 0.0 0.00 0.00 0.00 70 1016.3
20260906001529 25 0.0 0.0 0.00 0.00 0.00 70 1016.3
20260906000532 25 0.0 0.0 0.00 0.00 0.00 70 1016.3
20260905235518 26 0.0 0.0 0.00 0.00 0.00 67 1016.1
20260905234522 26 0.0 0.0 0.00 0.00 0.00 65 1016.1
20260905233527 28 0.0 0.0 0.00 0.00 0.00 61 1016.0
20260905232531 29 0.0 0.0 0.00 0.00 0.00 59 1015.9
20260905231516 30 0.0 0.0 0.00 0.00 0.00 58 1015.9
20260905230520 31 0.0 0.0 0.00 0.00 0.00 57 1015.9
20260905225524 28 129 1.6 3.2 0.00 0.00 0.00 61 1015.8
20260905224548 27 133 3.2 4.8 0.00 0.00 0.00 62 1015.7
20260905223532 27 130 3.2 6.4 0.00 0.00 0.00 62 1015.7
20260905222538 27 141 3.2 4.8 0.00 0.00 0.00 63 1015.9
20260905221521 26 156 4.8 6.4 0.00 0.00 0.00 62 1016.0
20260905220527 26 139 4.8 4.8 0.00 0.00 0.00 63 1016.1
20260905215529 27 134 6.4 9.7 0.00 0.00 0.00 62 1016.1
20260905214536 27 165 4.8 9.7 0.00 0.00 0.00 61 1016.1
20260905213520 27 123 4.8 6.4 0.00 0.00 0.00 63 1016.4
20260905212524 26 163 3.2 4.8 0.00 0.00 0.00 66 1016.5
20260905211527 25 172 4.8 8.0 0.00 0.00 0.00 67 1016.5
20260905210525 25 136 3.2 6.4 0.00 0.00 0.00 67 1016.3
20260905205537 25 146 4.8 6.4 0.00 0.00 0.00 68 1016.3